Weather History for Bryce Canyon, UT

Change the Weather History Date:

Sunday, November 20, 2011

  Actual Average Record
Temperature  
Mean Temperature 36 °F -  
Max Temperature 41 °F 39 °F 55 °F (1959)
Min Temperature 30 °F 12 °F -7 °F (1985)
Degree Days  
Heating Degree Days 30    
Moisture  
Dew Point 26 °F    
Average Humidity 66    
Maximum Humidity 79    
Minimum Humidity 51    
Precipitation  
Precipitation 0.02 in - - ()
Sea Level Pressure  
Sea Level Pressure 29.91 in    
Wind  
Wind Speed 7 mph (SSE)    
Max Wind Speed 13 mph    
Max Gust Speed 20 mph    
Visibility 6 miles    
Events Fog , Snow    
Averages and records for this station are not official NWS values.
T = Trace of Precipitation, MM = Missing Value Source: NWS Daily Summary

Daily Weather History Graph

Daily Weather History Graph

Search for Another Location

Airport:

Trip Planner

Search our weather history database for the weather conditions in past years. The results will help you decide how hot, cold, wet, or windy it might be!

Date:

Astronomy

Nov. 20, 2011 Rise Set
Actual Time 7:13 AM MST 5:14 PM MST
Civil Twilight 6:45 AM MST 5:42 PM MST
Nautical Twilight 6:13 AM MST 6:14 PM MST
Astronomical Twilight 5:42 AM MST 6:45 PM MST
Moon 1:51 AM MST 2:00 PM MST
Length of Visible Light 10h 57m
Length of Day
10h 00m
Waning Crescent, 26% of the Moon is Illuminated
Nov 20
Waning Crescent
Nov 24
New
Dec 2
First Quarter
Dec 10
Full
Dec 17
Last Quarter

Hourly Weather History & Observations

Time (MST) Temp. Windchill Dew Point Humidity Pressure Visibility Wind Dir Wind Speed Gust Speed Precip Events Conditions
12:53 AM 30.9 °F 24.3 °F - N/A% 29.79 in 10.0 mi ESE 6.9 mph - N/A   Overcast
1:53 AM 30.0 °F - - N/A% 29.76 in 10.0 mi Calm Calm - N/A   Overcast
2:53 AM 30.9 °F 27.5 °F - N/A% 29.77 in 10.0 mi SE 3.5 mph - 0.00 in   Overcast
3:53 AM 30.0 °F 26.5 °F - N/A% 29.75 in 10.0 mi SE 3.5 mph - N/A   Overcast
4:29 AM 30.2 °F - - N/A% 29.91 in 10.0 mi Calm Calm - N/A   Overcast
4:51 AM 30.2 °F 26.7 °F - N/A% 29.91 in 10.0 mi ESE 3.5 mph - N/A   Overcast
4:53 AM 30.0 °F 26.5 °F - N/A% 29.78 in 10.0 mi ESE 3.5 mph - N/A   Overcast
5:11 AM 30.2 °F 26.7 °F - N/A% 29.91 in 10.0 mi South 3.5 mph - N/A   Overcast
5:20 AM 30.2 °F 23.4 °F - N/A% 29.91 in 10.0 mi SSE 6.9 mph - N/A   Overcast
5:53 AM 30.9 °F 21.7 °F - N/A% 29.84 in 3.0 mi South 11.5 mph - 0.00 in Snow Light Snow
6:18 AM 30.2 °F 22.6 °F - N/A% 29.93 in 8.0 mi SSE 8.1 mph - 0.00 in   Overcast
6:53 AM 30.9 °F 22.8 °F - N/A% 29.86 in 3.0 mi SSE 9.2 mph - 0.00 in Snow Light Snow
7:07 AM 30.2 °F 23.4 °F - N/A% 29.94 in 2.0 mi SSE 6.9 mph - 0.00 in Snow Light Snow
7:14 AM 30.2 °F 23.4 °F - N/A% 29.94 in 1.8 mi SSE 6.9 mph - 0.00 in Snow Light Snow
7:22 AM 30.2 °F 23.4 °F - N/A% 29.95 in 2.0 mi SSE 6.9 mph - 0.00 in Snow Light Snow
7:30 AM 30.2 °F 21.3 °F - N/A% 29.95 in 1.0 mi SE 10.4 mph - 0.00 in Snow Light Snow
7:37 AM 30.2 °F 21.3 °F - N/A% 29.95 in 0.5 mi SSE 10.4 mph - 0.00 in Snow Snow
7:50 AM 30.2 °F 23.4 °F - N/A% 29.96 in 0.2 mi SSE 6.9 mph - 0.00 in Snow Heavy Snow
7:53 AM 30.9 °F 23.5 °F - N/A% 29.90 in 0.2 mi SSE 8.1 mph - 0.01 in Snow Heavy Snow
8:20 AM 30.2 °F 20.8 °F - N/A% 29.97 in 0.8 mi SSE 11.5 mph - 0.00 in Snow Light Snow
8:27 AM 30.2 °F 21.3 °F - N/A% 29.97 in 2.0 mi SSE 10.4 mph - 0.00 in Snow Light Snow
8:36 AM 30.2 °F 20.2 °F - N/A% 29.97 in 0.8 mi SSE 12.7 mph - 0.00 in Snow Light Snow
8:53 AM 30.9 °F 22.8 °F - N/A% 29.93 in 0.5 mi SSE 9.2 mph - 0.00 in Fog Light Freezing Fog
8:59 AM 32.0 °F 24.8 °F - N/A% 29.99 in 2.0 mi SSE 8.1 mph - 0.00 in Snow Light Snow
9:09 AM 32.0 °F 22.5 °F - N/A% 29.99 in 4.0 mi SSE 12.7 mph - 0.00 in   Haze
9:16 AM 32.0 °F 24.2 °F - N/A% 29.99 in 1.5 mi SE 9.2 mph - 0.00 in   Overcast
9:21 AM 32.0 °F 24.8 °F - N/A% 30.00 in 0.2 mi SE 8.1 mph - 0.00 in Fog Fog
9:53 AM 32.0 °F 23.0 °F - N/A% 29.90 in 0.2 mi SE 11.5 mph - 0.00 in Fog Fog
10:31 AM 32.0 °F 24.2 °F - N/A% 30.02 in 1.0 mi SSE 9.2 mph - N/A   Mist
10:36 AM 32.0 °F 24.2 °F - N/A% 30.02 in 3.0 mi SSE 9.2 mph - N/A   Overcast
10:53 AM 33.1 °F 25.5 °F - N/A% 29.92 in 9.0 mi SE 9.2 mph - N/A   Overcast
11:02 AM 33.8 °F 24.8 °F - N/A% 30.02 in 10.0 mi SE 12.7 mph - N/A   Overcast
11:53 AM 37.9 °F 30.5 °F - N/A% 29.90 in 10.0 mi SE 11.5 mph - N/A   Overcast
12:53 PM 39.0 °F 31.8 °F 28.0 °F 65% 29.88 in 10.0 mi SSE 11.5 mph - N/A   Scattered Clouds
1:53 PM 41.0 °F 33.9 °F 24.1 °F 51% 29.86 in 10.0 mi South 12.7 mph 19.6 mph N/A   Scattered Clouds
2:53 PM 39.9 °F 32.5 °F 23.0 °F 51% 29.87 in 10.0 mi South 12.7 mph - N/A   Mostly Cloudy
3:53 PM 39.0 °F 31.8 °F 25.0 °F 57% 29.89 in 10.0 mi South 11.5 mph - N/A   Partly Cloudy
4:53 PM 37.0 °F 32.4 °F 25.0 °F 62% 29.90 in 10.0 mi SSE 5.8 mph - N/A   Clear
5:53 PM 33.1 °F 27.7 °F 25.0 °F 72% 29.93 in 10.0 mi SSE 5.8 mph - N/A   Clear
7:53 PM 34.0 °F - 26.1 °F 73% 29.93 in 9.0 mi Calm Calm - 0.00 in Snow Light Snow
9:53 PM 35.1 °F 29.3 °F 28.0 °F 76% 29.93 in 7.0 mi SSE 6.9 mph - 0.00 in Snow Light Snow
10:53 PM 34.0 °F 29.8 °F 28.0 °F 79% 29.93 in 6.0 mi South 4.6 mph - 0.00 in Snow Light Snow
11:53 PM 33.1 °F 26.9 °F 27.0 °F 78% 29.91 in 10.0 mi SSE 6.9 mph - 0.01 in   Mostly Cloudy